カタログに戻る

FENGYUN 1C DEB

LostSSO
NORAD 36270·DEBRIS·🇨🇳 China

打ち上げ May 10, 1999 から Taiyuan Satellite Launch Center

Loading…

次のパス (今後24時間)

TLE

古いSource: Space-Track

元期: May 19, 2024, 05:56 UTC

1 36270U 99025DWX 24140.24790641  .00014303  00000-0  57102-2 0  9995
2 36270  98.9989 249.7404 0059485 315.7308  43.9122 14.27595966854316

AllMySatでFENGYUN 1C DEBをリアルタイム追跡

Download on the App Store